DW8947 Weather Reports


Display with metric or nautical units.
time (UTC)temp
F
wind
direction
speed
MPH
gust
MPH
rain 1hr
in
rain 24hr
in
rain mn
in
humidity
%
barometer
mb
20260905231705 67 333 0.0 0.0 0.00 0.00 0.00 63 1014.9
20260905230705 67 3 0.0 2.0 0.00 0.00 0.00 64 1015.0
20260905225705 67 330 0.0 2.0 0.00 0.00 0.00 60 1015.0
20260905225205 67 119 0.0 1.0 0.00 0.00 0.00 65 1015.0
20260905224205 67 153 1.0 2.0 0.00 0.00 0.00 61 1015.0
20260905223205 67 177 0.0 2.0 0.00 0.00 0.00 59 1015.1
20260905222705 67 210 0.0 2.0 0.00 0.00 0.00 58 1015.1
20260905222205 67 227 0.0 2.0 0.00 0.00 0.00 61 1015.1
20260905221705 67 209 0.0 2.0 0.00 0.00 0.00 56 1015.1
20260905221205 67 173 1.0 2.0 0.00 0.00 0.00 59 1015.2
20260905220205 67 227 0.0 1.0 0.00 0.00 0.00 57 1015.3
20260905214205 67 209 1.0 1.0 0.00 0.00 0.00 61 1015.3
20260905213205 66 202 1.0 2.0 0.00 0.00 0.00 61 1015.4
20260905212705 67 272 1.0 2.0 0.00 0.00 0.00 63 1015.5
20260905210705 66 81 0.0 2.0 0.00 0.00 0.00 67 1015.6
20260905210205 67 140 1.0 2.0 0.00 0.00 0.00 68 1015.6
20260905205205 67 153 0.0 2.0 0.00 0.00 0.00 65 1015.7
20260905204705 68 155 0.0 2.0 0.00 0.00 0.00 66 1015.6
20260905202705 69 235 1.0 2.0 0.00 0.00 0.00 61 1015.8
20260905202205 70 67 1.0 2.0 0.00 0.00 0.00 64 1015.8
20260905201705 70 12 0.0 2.0 0.00 0.00 0.00 62 1015.8
20260905195705 69 58 2.0 3.0 0.00 0.00 0.00 63 1016.0
20260905195205 69 81 1.0 3.0 0.00 0.00 0.00 65 1016.0
20260905194705 68 320 0.0 2.0 0.00 0.00 0.00 67 1016.0
20260905194205 68 196 0.0 2.0 0.00 0.00 0.00 67 1016.1
20260905192704 67 132 1.0 1.0 0.00 0.00 0.00 70 1016.2
20260905192205 67 127 0.0 2.0 0.00 0.00 0.00 71 1016.1
20260905191205 65 14 0.0 2.0 0.00 0.00 0.00 77 1016.2
20260905184705 62 54 0.0 2.0 0.00 0.00 0.00 81 1016.4
20260905182205 61 169 0.0 2.0 0.00 0.00 0.00 84 1016.6
20260905181705 61 169 0.0 2.0 0.00 0.00 0.00 84 1016.6
20260905180705 60 117 0.0 2.0 0.00 0.00 0.00 85 1016.7
20260905174704 58 133 0.0 2.0 0.00 0.00 0.00 88 1016.9
20260905174204 58 133 0.0 2.0 0.00 0.00 0.00 88 1016.9
20260905172705 58 144 0.0 2.0 0.00 0.00 0.00 89 1016.8
20260905172205 58 152 0.0 0.0 0.00 0.00 0.00 90 1016.8
20260905165705 58 152 0.0 2.0 0.00 0.00 0.00 90 1016.7
20260905165205 58 152 0.0 2.0 0.00 0.00 0.00 91 1016.7
20260905164705 58 152 0.0 0.0 0.00 0.00 0.00 91 1016.6
20260905164205 58 152 0.0 2.0 0.00 0.00 0.00 91 1016.6
20260905163705 58 152 0.0 0.0 0.00 0.00 0.00 91 1016.6
20260905162705 57 152 0.0 2.0 0.00 0.00 0.00 92 1016.6
20260905161204 56 152 0.0 2.0 0.00 0.00 0.00 95 1016.5
20260905160705 56 152 0.0 2.0 0.00 0.00 0.00 95 1016.5
20260905160205 55 152 0.0 0.0 0.00 0.00 0.00 95 1016.4
20260905155705 55 152 0.0 2.0 0.00 0.00 0.00 95 1016.4
20260905155204 55 152 0.0 2.0 0.00 0.00 0.00 95 1016.4
20260905154705 55 152 0.0 0.0 0.00 0.00 0.00 95 1016.4
20260905154205 55 152 0.0 2.0 0.00 0.00 0.00 95 1016.4
20260905153705 54 152 0.0 0.0 0.00 0.00 0.00 95 1016.4
20260905152205 54 152 0.0 1.0 0.00 0.00 0.00 95 1016.3
20260905150205 54 152 0.0 0.0 0.00 0.00 0.00 94 1016.1
20260905145705 54 152 0.0 2.0 0.00 0.00 0.00 95 1016.1
20260905142705 53 73 0.0 2.0 0.00 0.00 0.00 94 1016.0
20260905141205 53 73 0.0 2.0 0.00 0.00 0.00 94 1015.9
20260905134705 53 73 0.0 0.0 0.00 0.00 0.00 93 1015.8
20260905133704 53 73 0.0 0.0 0.00 0.00 0.00 93 1015.8
20260905132705 53 73 0.0 0.0 0.00 0.00 0.00 94 1015.8
20260905130205 53 73 0.0 0.0 0.00 0.00 0.00 93 1015.7
20260905124704 53 73 0.0 0.0 0.00 0.00 0.00 93 1015.5
20260905123705 53 73 0.0 0.0 0.00 0.00 0.00 93 1015.4
20260905122705 53 73 0.0 0.0 0.00 0.00 0.00 93 1015.4
20260905121705 53 73 0.0 2.0 0.00 0.00 0.00 93 1015.4
20260905115704 53 73 0.0 0.0 0.00 0.00 0.00 92 1015.4
20260905115204 53 73 0.0 0.0 0.00 0.00 0.00 92 1015.4
20260905114705 54 73 0.0 0.0 0.00 0.00 0.00 92 1015.3
20260905112704 54 73 0.0 0.0 0.00 0.00 0.00 92 1015.1
20260905111705 54 73 0.0 2.0 0.00 0.00 0.00 92 1015.2
20260905110704 54 73 0.0 0.0 0.00 0.00 0.00 91 1015.2
20260905110204 54 73 0.0 0.0 0.00 0.00 0.00 91 1015.2
20260905105705 54 73 0.0 2.0 0.00 0.00 0.00 91 1015.2
20260905105204 54 73 0.0 2.0 0.00 0.00 0.00 91 1015.2
20260905104705 54 73 0.0 2.0 0.00 0.00 0.00 91 1015.3
20260905104205 54 73 0.0 2.0 0.00 0.00 0.00 91 1015.2
20260905103705 54 73 0.0 0.0 0.00 0.00 0.00 91 1015.3
20260905102704 54 73 0.0 2.0 0.00 0.00 0.00 92 1015.2
20260905102205 54 73 0.0 2.0 0.00 0.00 0.00 92 1015.2
20260905101204 54 73 0.0 2.0 0.00 0.00 0.00 92 1015.1
20260905100705 54 73 0.0 2.0 0.00 0.00 0.00 92 1015.1
20260905095705 54 73 0.0 0.0 0.00 0.00 0.00 91 1015.1
20260905094706 54 73 0.0 2.0 0.00 0.00 0.00 91 1015.1
20260905094204 54 73 0.0 0.0 0.00 0.00 0.00 91 1015.1
20260905093205 54 73 0.0 0.0 0.00 0.00 0.00 91 1015.0
20260905091705 55 73 0.0 0.0 0.00 0.00 0.00 91 1014.9
20260905091204 55 73 0.0 0.0 0.00 0.00 0.00 91 1014.9
20260905090705 55 73 0.0 0.0 0.00 0.00 0.00 91 1014.8
20260905085705 55 73 0.0 2.0 0.00 0.00 0.00 91 1014.8
20260905084705 55 73 0.0 1.0 0.00 0.00 0.00 90 1014.7
20260905083205 55 73 0.0 2.0 0.00 0.00 0.00 89 1014.7
20260905082704 55 73 0.0 1.0 0.00 0.00 0.00 89 1014.7
20260905081705 56 73 0.0 2.0 0.00 0.00 0.00 88 1014.8
20260905081205 56 73 0.0 2.0 0.00 0.00 0.00 88 1014.8
20260905080704 56 73 0.0 2.0 0.00 0.00 0.00 88 1014.7
20260905075204 57 73 0.0 2.0 0.00 0.00 0.00 87 1014.7
20260905073204 57 73 0.0 2.0 0.00 0.00 0.00 86 1014.5
20260905072705 57 73 0.0 2.0 0.00 0.00 0.00 86 1014.5
20260905072205 57 154 0.0 1.0 0.00 0.00 0.00 86 1014.5
20260905070705 57 95 0.0 2.0 0.00 0.00 0.00 85 1014.3
20260905070205 57 95 0.0 2.0 0.00 0.00 0.00 85 1014.3
20260905065705 57 140 0.0 2.0 0.00 0.00 0.00 86 1014.3
20260905065205 57 140 0.0 2.0 0.00 0.00 0.00 85 1014.3
20260905061204 58 140 0.0 0.0 0.00 0.00 0.00 86 1014.3
20260905055205 58 140 0.0 0.0 0.00 0.00 0.00 85 1014.3
20260905054205 58 140 0.0 1.0 0.00 0.00 0.00 85 1014.3
20260905052705 58 140 0.0 0.0 0.00 0.00 0.00 84 1014.3
20260905051205 58 140 0.0 0.0 0.00 0.00 0.00 84 1014.2
20260905050204 58 140 0.0 2.0 0.00 0.00 0.00 84 1014.2
20260905045705 58 140 0.0 0.0 0.00 0.00 0.00 83 1014.3
20260905044205 58 140 0.0 0.0 0.00 0.00 0.00 83 1014.3
20260905043705 59 140 0.0 2.0 0.00 0.00 0.00 82 1014.3
20260905042705 59 140 0.0 0.0 0.00 0.00 0.00 81 1014.3
20260905042205 59 140 0.0 0.0 0.00 0.00 0.00 81 1014.2
20260905041204 59 140 0.0 0.0 0.00 0.00 0.00 79 1014.2
20260905034204 60 140 0.0 0.0 0.00 0.00 0.00 77 1014.0
20260905032705 61 140 0.0 2.0 0.00 0.00 0.00 76 1013.9
20260905032205 61 140 0.0 0.0 0.00 0.00 0.00 76 1013.9
20260905031705 61 140 0.0 2.0 0.00 0.00 0.00 76 1013.9
20260905031204 61 140 0.0 0.0 0.00 0.00 0.00 76 1013.8
20260905024705 62 140 0.0 0.0 0.00 0.00 0.00 73 1013.6
20260905024204 63 140 0.0 1.0 0.00 0.00 0.00 73 1013.6
20260905023704 63 140 0.0 2.0 0.00 0.00 0.00 73 1013.6
20260905022704 63 140 0.0 2.0 0.00 0.00 0.00 73 1013.6
20260905015205 65 94 0.0 0.0 0.00 0.00 0.00 69 1013.5
20260905014705 65 94 0.0 2.0 0.00 0.00 0.00 69 1013.5
20260905013204 66 176 0.0 2.0 0.00 0.00 0.00 68 1013.3
20260905012705 66 197 0.0 2.0 0.00 0.00 0.00 68 1013.2
20260905012205 66 244 1.0 2.0 0.00 0.00 0.00 66 1013.1
20260905010705 66 16 0.0 1.0 0.00 0.00 0.00 66 1013.0
20260905005204 66 173 0.0 2.0 0.00 0.00 0.00 64 1012.8
20260905003704 67 339 1.0 2.0 0.00 0.00 0.00 62 1012.5
20260905003204 67 298 1.0 2.0 0.00 0.00 0.00 62 1012.5
20260905002205 67 303 1.0 3.0 0.00 0.00 0.00 62 1012.3
20260905001704 67 8 0.0 2.0 0.00 0.00 0.00 65 1012.3
20260905000205 68 331 1.0 2.0 0.00 0.00 0.00 65 1012.2
20260904235704 68 89 1.0 2.0 0.00 0.00 0.00 61 1012.2
20260904234704 68 146 0.0 2.0 0.00 0.00 0.00 62 1012.2
20260904234205 68 132 1.0 2.0 0.00 0.00 0.00 62 1012.2